OBJECT E, 51828

Orbit data source: Space-Track

You're viewing an Uncataloged Satellite

Recently launched and/or uncataloged satellites may have evolving metadata. Metadata may include but not limited to: Owner, Maufacturer, Bus, Motor, and Mission.

OBJECT E, 51828 is a Chinese satellite in SSO that was launched on Sun, 27 Feb 2022 UTC via a CHANG ZHENG 8 launch vehicle from the Wenchang Satellite Launch Center (WSC). Unknown objects in Earth's orbit typically refer to objects detected orbiting the Earth but have not yet been identified or cataloged. These objects could be anything from previously untracked satellites, spent rocket stages, debris from satellite collisions, or even natural meteoroids temporarily captured by Earth's gravity.

Loading next visibility...
Identifier
51828, 2022-019E
Orbit
SSO
Country
Flag of CNCN / PRC
Related business
None
Manufacturer
Unknown
Mission
Civil Imaging
Bus & Motor
Unknown
Mass
Unknown
Launch date (UTC)
2022-02-27 (4 years ago)
Launch vehicle
CHANG ZHENG 8
Launch site
Wenchang Satellite Launch Center (WSC)
Object type
Unknown
Shape & HBR
Box + 2 Pan, 1.0 m
Radar Cross Section
1.775 m², Medium (>0.1 m² and < 1m²)

Expand to show TLE details & history
Last TLE update: 19 hours ago

TLE from 19 hours ago
0 OBJECT E
1 51828U 22019E   25348.98135652  .00016033  00000-0  28845-3 0  9992
2 51828  97.3874  75.4807 0008397  66.5788 293.6346 15.49880364211377
Epoch: 2025-12-14T23:33Z
TLE epoch observation values (Epoch: 2025-12-14T23:33:09.203Z)
Latitude
0.00004°
Longitude
-1.69413°
Altitude
417.923 km
Speed
7.662 km/s
True Right ascension
05h 01m 55s
True Declination
0° 00' 00"
Sunlit
Object was in full shadow at epoch
Visualization orbit readout
Latitude
Unknown
Longitude
Unknown
Altitude
Unknown
Speed
Unknown
Apparent Right ascension
Unknown
Apparent Declination
Unknown
Sunlit
N/A
Visualization observer readout
Local Sidereal Time
17:10:07
Azimuth
Unknown
Elevation
Unknown
Doppler factor
Unknown
Orbital elements
Apogee altitude
419.704 km
Perigee altitude
408.298 km
Semi-major axis
6,792.138 km
Eccentricity
0.00084
Inclination
97.3874°
RAAN
75.4807°
Arg. of periapsis
66.5788°
True anomaly
293.54641°
Mean anomaly
293.6346°
Eccentric anomaly
293.59051°
Mean motion
3.87734 °/min
Orbital period
92.85 mins
BSTAR
0.00028845
Loading maneuver chart data...
Computing Atmospheric mass density...
Loading historical data...
Loading historical data...
Loading historical data...
Loading historical data...
Loading historical data...
Loading historical data...
Loading historical data...

Documentation

Showing up to 5 results
|